Hourly Data Report for May 30, 2020

TORONTO CITY
ONTARIO
Current Station Operator: ECCC - MSC

43°40'00.000" N
79°24'00.000" W
112.50 m
6158355
71508
XTO

Download Data

Hourly Data (May 2020)
Hourly Data Report for May 30, 2020
TIME
LST
Temp Definition
°C
Dew Point Definition
°C
Rel Hum Definition
%
Precip. Amount Definition
mm

Wind Dir Definition
10's deg

Wind Spd Definition
km/h
Visibility Definition
km
Stn Press Definition
kPa
Hmdx Definition


Wind Chill Definition


Weather Definition


00:00 14.1 9.7 75 0.0       99.96     LegendNANA
01:00 13.5 9.7 78 0.0       100.00     LegendNANA
02:00 12.9 9.9 82 0.0       100.03     LegendNANA
03:00 13.5 9.9 79 0.0       100.06     LegendNANA
04:00 13.2 9.8 80 0.0       100.07     LegendNANA
05:00 13.1 9.8 80 0.0       100.09     LegendNANA
06:00 13.1 9.7 80 0.0       100.12     LegendNANA
07:00 14.9 10.4 75 0.0       100.09     LegendNANA
08:00 16.8 9.9 64 0.0       100.07     LegendNANA
09:00 16.4 9.0 62 0.0       100.07     LegendNANA
10:00 16.9 9.0 60 0.0       99.99     LegendNANA
11:00 19.3 11.1 59 0.0       99.95     LegendNANA
12:00 18.3 10.4 60 0.3       99.97     LegendNANA
13:00 18.1 8.4 53 0.0       100.02     LegendNANA
14:00 17.5 8.8 57 0.3       100.09     LegendNANA
15:00 16.0 7.2 56 0.0       100.18     LegendNANA
16:00 14.6 6.8 60 0.3       100.27     LegendNANA
17:00 16.0 5.7 51 0.0       100.30     LegendNANA
18:00 15.3 2.7 43 0.0       100.34     LegendNANA
19:00 14.7 3.1 46 0.0       100.42     LegendNANA
20:00 13.3 3.7 52 0.0       100.49     LegendNANA
21:00 12.4 3.6 55 0.0       100.59     LegendNANA
22:00 11.7 3.1 56 0.0       100.63     LegendNANA
23:00 10.9 3.2 59 0.0       100.63     LegendNANA

Notes on Data Quality.

Legend

  • E = Estimated
  • M = Missing
  • NA = Not Available*
  • [empty] = Indicates an unobserved value
Date modified: